owner,sensor,date,latitude,longitude,vertical_datum,sea_water_practical_salinity,qcFlag 
TCOON,ioos:station:TCOON:170:1,2014-05-01T18:30:00Z,27.2970,-97.4049,0.0,48.7,1111122 
TCOON,ioos:station:TCOON:170:1,2014-05-01T19:00:00Z,27.2970,-97.4049,0.0,48.7,1111122 
TCOON,ioos:station:TCOON:170:1,2014-05-01T20:00:00Z,27.2970,-97.4049,0.0,49.9,1111122 
TCOON,ioos:station:TCOON:170:1,2014-05-01T21:00:00Z,27.2970,-97.4049,0.0,50.0,1111122 
TCOON,ioos:station:TCOON:170:1,2014-05-01T22:00:00Z,27.2970,-97.4049,0.0,50.1,1111122 
TCOON,ioos:station:TCOON:170:1,2014-05-01T23:00:00Z,27.2970,-97.4049,0.0,50.1,1111122 
TCOON,ioos:station:TCOON:170:1,2014-05-02T00:00:00Z,27.2970,-97.4049,0.0,50.2,1111122 
TCOON,ioos:station:TCOON:170:1,2014-05-02T01:00:00Z,27.2970,-97.4049,0.0,50.3,1111122 
TCOON,ioos:station:TCOON:170:1,2014-05-02T02:00:00Z,27.2970,-97.4049,0.0,50.3,1111122 
TCOON,ioos:station:TCOON:170:1,2014-05-02T03:00:00Z,27.2970,-97.4049,0.0,50.2,1111122 
TCOON,ioos:station:TCOON:170:1,2014-05-02T04:00:00Z,27.2970,-97.4049,0.0,49.9,1111122 
TCOON,ioos:station:TCOON:170:1,2014-05-02T05:00:00Z,27.2970,-97.4049,0.0,50.1,1111122 
TCOON,ioos:station:TCOON:170:1,2014-05-02T06:00:00Z,27.2970,-97.4049,0.0,50.0,1111122 
TCOON,ioos:station:TCOON:170:1,2014-05-02T07:00:00Z,27.2970,-97.4049,0.0,49.9,1111122 
TCOON,ioos:station:TCOON:170:1,2014-05-02T08:00:00Z,27.2970,-97.4049,0.0,50.1,1111122 
TCOON,ioos:station:TCOON:170:1,2014-05-02T09:00:00Z,27.2970,-97.4049,0.0,50.1,1111122 
TCOON,ioos:station:TCOON:170:1,2014-05-02T10:00:00Z,27.2970,-97.4049,0.0,50.2,1111122 
TCOON,ioos:station:TCOON:170:1,2014-05-02T11:00:00Z,27.2970,-97.4049,0.0,50.1,1111122 
TCOON,ioos:station:TCOON:170:1,2014-05-02T12:00:00Z,27.2970,-97.4049,0.0,50.1,1111122 
TCOON,ioos:station:TCOON:170:1,2014-05-02T13:00:00Z,27.2970,-97.4049,0.0,50.1,1111122 
TCOON,ioos:station:TCOON:170:1,2014-05-02T14:00:00Z,27.2970,-97.4049,0.0,50.0,1111122 
TCOON,ioos:station:TCOON:170:1,2014-05-02T15:00:00Z,27.2970,-97.4049,0.0,50.0,1111122 
TCOON,ioos:station:TCOON:170:1,2014-05-02T16:00:00Z,27.2970,-97.4049,0.0,50.0,1111122 
TCOON,ioos:station:TCOON:170:1,2014-05-02T17:00:00Z,27.2970,-97.4049,0.0,49.9,1111122 
TCOON,ioos:station:TCOON:170:1,2014-05-02T18:00:00Z,27.2970,-97.4049,0.0,50.0,1111122 
TCOON,ioos:station:TCOON:170:1,2014-05-02T19:00:00Z,27.2970,-97.4049,0.0,50.0,1111122 
TCOON,ioos:station:TCOON:170:1,2014-05-02T20:00:00Z,27.2970,-97.4049,0.0,49.9,1111122 
TCOON,ioos:station:TCOON:170:1,2014-05-02T21:00:00Z,27.2970,-97.4049,0.0,49.9,1111122 
TCOON,ioos:station:TCOON:170:1,2014-05-02T22:00:00Z,27.2970,-97.4049,0.0,49.9,1111122 
TCOON,ioos:station:TCOON:170:1,2014-05-02T23:00:00Z,27.2970,-97.4049,0.0,49.8,1111122 
TCOON,ioos:station:TCOON:170:1,2014-05-03T00:00:00Z,27.2970,-97.4049,0.0,49.8,1111122 
TCOON,ioos:station:TCOON:170:1,2014-05-03T01:00:00Z,27.2970,-97.4049,0.0,50.0,1111122 
TCOON,ioos:station:TCOON:170:1,2014-05-03T02:00:00Z,27.2970,-97.4049,0.0,50.0,1111122 
TCOON,ioos:station:TCOON:170:1,2014-05-03T03:00:00Z,27.2970,-97.4049,0.0,50.1,1111122 
TCOON,ioos:station:TCOON:170:1,2014-05-03T04:00:00Z,27.2970,-97.4049,0.0,50.1,1111122 
TCOON,ioos:station:TCOON:170:1,2014-05-03T05:00:00Z,27.2970,-97.4049,0.0,50.0,1111122 
TCOON,ioos:station:TCOON:170:1,2014-05-03T06:00:00Z,27.2970,-97.4049,0.0,50.0,1111122 
TCOON,ioos:station:TCOON:170:1,2014-05-03T07:00:00Z,27.2970,-97.4049,0.0,50.0,1111122 
TCOON,ioos:station:TCOON:170:1,2014-05-03T08:00:00Z,27.2970,-97.4049,0.0,49.9,1111122 
TCOON,ioos:station:TCOON:170:1,2014-05-03T14:00:00Z,27.2970,-97.4049,0.0,49.6,1111122 
TCOON,ioos:station:TCOON:170:1,2014-05-03T15:00:00Z,27.2970,-97.4049,0.0,49.5,1111122 
TCOON,ioos:station:TCOON:170:1,2014-05-03T16:00:00Z,27.2970,-97.4049,0.0,49.4,1111122 
TCOON,ioos:station:TCOON:170:1,2014-05-03T17:00:00Z,27.2970,-97.4049,0.0,49.5,1111122 
TCOON,ioos:station:TCOON:170:1,2014-05-03T18:00:00Z,27.2970,-97.4049,0.0,49.4,1111122 
TCOON,ioos:station:TCOON:170:1,2014-05-03T19:00:00Z,27.2970,-97.4049,0.0,49.5,1111122 
TCOON,ioos:station:TCOON:170:1,2014-05-03T20:00:00Z,27.2970,-97.4049,0.0,49.4,1111122 
TCOON,ioos:station:TCOON:170:1,2014-05-03T21:00:00Z,27.2970,-97.4049,0.0,49.5,1111122 
TCOON,ioos:station:TCOON:170:1,2014-05-03T22:00:00Z,27.2970,-97.4049,0.0,49.5,1111122 
TCOON,ioos:station:TCOON:170:1,2014-05-03T23:00:00Z,27.2970,-97.4049,0.0,49.5,1111122 
TCOON,ioos:station:TCOON:170:1,2014-05-04T00:00:00Z,27.2970,-97.4049,0.0,49.4,1111122 
TCOON,ioos:station:TCOON:170:1,2014-05-04T01:00:00Z,27.2970,-97.4049,0.0,49.4,1111122 
TCOON,ioos:station:TCOON:170:1,2014-05-04T05:00:00Z,27.2970,-97.4049,0.0,49.4,1111122 
TCOON,ioos:station:TCOON:170:1,2014-05-04T08:00:00Z,27.2970,-97.4049,0.0,48.8,1111122 
TCOON,ioos:station:TCOON:170:1,2014-05-04T09:00:00Z,27.2970,-97.4049,0.0,48.3,1111122 
TCOON,ioos:station:TCOON:170:1,2014-05-04T10:00:00Z,27.2970,-97.4049,0.0,48.2,1111122 
TCOON,ioos:station:TCOON:170:1,2014-05-04T11:00:00Z,27.2970,-97.4049,0.0,48.4,1111122 
TCOON,ioos:station:TCOON:170:1,2014-05-04T12:00:00Z,27.2970,-97.4049,0.0,48.9,1111122 
TCOON,ioos:station:TCOON:170:1,2014-05-04T13:00:00Z,27.2970,-97.4049,0.0,48.8,1111122 
TCOON,ioos:station:TCOON:170:1,2014-05-04T14:00:00Z,27.2970,-97.4049,0.0,48.8,1111122 
TCOON,ioos:station:TCOON:170:1,2014-05-04T15:00:00Z,27.2970,-97.4049,0.0,48.8,1111122 
TCOON,ioos:station:TCOON:170:1,2014-05-04T16:00:00Z,27.2970,-97.4049,0.0,48.4,1111122 
TCOON,ioos:station:TCOON:170:1,2014-05-04T17:00:00Z,27.2970,-97.4049,0.0,48.4,1111122 
TCOON,ioos:station:TCOON:170:1,2014-05-04T18:00:00Z,27.2970,-97.4049,0.0,49.1,1111122 
TCOON,ioos:station:TCOON:170:1,2014-05-04T19:00:00Z,27.2970,-97.4049,0.0,48.6,1111122 
TCOON,ioos:station:TCOON:170:1,2014-05-04T20:00:00Z,27.2970,-97.4049,0.0,48.4,1111122 
TCOON,ioos:station:TCOON:170:1,2014-05-04T21:00:00Z,27.2970,-97.4049,0.0,48.3,1111122 
TCOON,ioos:station:TCOON:170:1,2014-05-04T22:00:00Z,27.2970,-97.4049,0.0,48.1,1111122 
TCOON,ioos:station:TCOON:170:1,2014-05-04T23:00:00Z,27.2970,-97.4049,0.0,48.0,1111122 
TCOON,ioos:station:TCOON:170:1,2014-05-05T00:00:00Z,27.2970,-97.4049,0.0,45.2,1111122 
TCOON,ioos:station:TCOON:170:1,2014-05-05T01:00:00Z,27.2970,-97.4049,0.0,47.7,1111122 
TCOON,ioos:station:TCOON:170:1,2014-05-05T02:00:00Z,27.2970,-97.4049,0.0,47.4,1111122 
TCOON,ioos:station:TCOON:170:1,2014-05-05T03:00:00Z,27.2970,-97.4049,0.0,47.3,1111122 
TCOON,ioos:station:TCOON:170:1,2014-05-05T04:00:00Z,27.2970,-97.4049,0.0,47.4,1111122 
TCOON,ioos:station:TCOON:170:1,2014-05-05T05:00:00Z,27.2970,-97.4049,0.0,46.9,1111122 
TCOON,ioos:station:TCOON:170:1,2014-05-05T06:30:00Z,27.2970,-97.4049,0.0,46.5,1111122 
TCOON,ioos:station:TCOON:170:1,2014-05-05T07:00:00Z,27.2970,-97.4049,0.0,46.6,1111122 
TCOON,ioos:station:TCOON:170:1,2014-05-05T08:00:00Z,27.2970,-97.4049,0.0,47.2,1111122 
TCOON,ioos:station:TCOON:170:1,2014-05-05T09:00:00Z,27.2970,-97.4049,0.0,47.4,1111122 
TCOON,ioos:station:TCOON:170:1,2014-05-05T10:00:00Z,27.2970,-97.4049,0.0,47.7,1111122 
TCOON,ioos:station:TCOON:170:1,2014-05-05T11:00:00Z,27.2970,-97.4049,0.0,47.6,1111122 
TCOON,ioos:station:TCOON:170:1,2014-05-05T12:00:00Z,27.2970,-97.4049,0.0,47.7,1111122 
TCOON,ioos:station:TCOON:170:1,2014-05-05T13:00:00Z,27.2970,-97.4049,0.0,47.9,1111122 
TCOON,ioos:station:TCOON:170:1,2014-05-05T14:00:00Z,27.2970,-97.4049,0.0,47.8,1111122 
TCOON,ioos:station:TCOON:170:1,2014-05-05T15:00:00Z,27.2970,-97.4049,0.0,48.6,1111122 
TCOON,ioos:station:TCOON:170:1,2014-05-05T16:00:00Z,27.2970,-97.4049,0.0,48.7,1111122 
TCOON,ioos:station:TCOON:170:1,2014-05-05T17:00:00Z,27.2970,-97.4049,0.0,48.6,1111122 
TCOON,ioos:station:TCOON:170:1,2014-05-05T18:00:00Z,27.2970,-97.4049,0.0,48.6,1111122 
TCOON,ioos:station:TCOON:170:1,2014-05-05T19:00:00Z,27.2970,-97.4049,0.0,48.6,1111122 
TCOON,ioos:station:TCOON:170:1,2014-05-05T20:00:00Z,27.2970,-97.4049,0.0,48.3,1111122 
TCOON,ioos:station:TCOON:170:1,2014-05-05T21:00:00Z,27.2970,-97.4049,0.0,48.0,1111122 
TCOON,ioos:station:TCOON:170:1,2014-05-05T22:00:00Z,27.2970,-97.4049,0.0,48.1,1111122 
TCOON,ioos:station:TCOON:170:1,2014-05-05T23:00:00Z,27.2970,-97.4049,0.0,48.0,1111122 
TCOON,ioos:station:TCOON:170:1,2014-05-06T00:00:00Z,27.2970,-97.4049,0.0,48.0,1111122 
TCOON,ioos:station:TCOON:170:1,2014-05-06T01:00:00Z,27.2970,-97.4049,0.0,47.8,1111122 
TCOON,ioos:station:TCOON:170:1,2014-05-06T02:00:00Z,27.2970,-97.4049,0.0,47.4,1111122 
TCOON,ioos:station:TCOON:170:1,2014-05-06T03:00:00Z,27.2970,-97.4049,0.0,47.2,1111122 
TCOON,ioos:station:TCOON:170:1,2014-05-06T04:00:00Z,27.2970,-97.4049,0.0,47.2,1111122 
TCOON,ioos:station:TCOON:170:1,2014-05-06T05:00:00Z,27.2970,-97.4049,0.0,46.6,1111122 
TCOON,ioos:station:TCOON:170:1,2014-05-06T07:00:00Z,27.2970,-97.4049,0.0,46.5,1111122 
TCOON,ioos:station:TCOON:170:1,2014-05-06T08:00:00Z,27.2970,-97.4049,0.0,46.7,1111122 
TCOON,ioos:station:TCOON:170:1,2014-05-06T09:00:00Z,27.2970,-97.4049,0.0,47.0,1111122 
TCOON,ioos:station:TCOON:170:1,2014-05-06T10:00:00Z,27.2970,-97.4049,0.0,47.3,1111122 
TCOON,ioos:station:TCOON:170:1,2014-05-06T11:00:00Z,27.2970,-97.4049,0.0,47.5,1111122 
TCOON,ioos:station:TCOON:170:1,2014-05-06T12:00:00Z,27.2970,-97.4049,0.0,47.3,1111122 
TCOON,ioos:station:TCOON:170:1,2014-05-06T13:00:00Z,27.2970,-97.4049,0.0,47.5,1111122 
TCOON,ioos:station:TCOON:170:1,2014-05-06T14:00:00Z,27.2970,-97.4049,0.0,48.0,1111122 
TCOON,ioos:station:TCOON:170:1,2014-05-06T15:00:00Z,27.2970,-97.4049,0.0,48.2,1111122 
TCOON,ioos:station:TCOON:170:1,2014-05-06T16:00:00Z,27.2970,-97.4049,0.0,48.2,1111122 
TCOON,ioos:station:TCOON:170:1,2014-05-06T17:00:00Z,27.2970,-97.4049,0.0,48.2,1111122 
TCOON,ioos:station:TCOON:170:1,2014-05-06T18:00:00Z,27.2970,-97.4049,0.0,48.1,1111122 
TCOON,ioos:station:TCOON:170:1,2014-05-06T19:30:00Z,27.2970,-97.4049,0.0,48.1,1111122 
TCOON,ioos:station:TCOON:170:1,2014-05-06T20:30:00Z,27.2970,-97.4049,0.0,47.9,1111122 
TCOON,ioos:station:TCOON:170:1,2014-05-06T21:30:00Z,27.2970,-97.4049,0.0,47.7,1111122 
TCOON,ioos:station:TCOON:170:1,2014-05-06T22:30:00Z,27.2970,-97.4049,0.0,47.8,1111122 
TCOON,ioos:station:TCOON:170:1,2014-05-06T23:30:00Z,27.2970,-97.4049,0.0,47.8,1111122 
TCOON,ioos:station:TCOON:170:1,2014-05-07T00:30:00Z,27.2970,-97.4049,0.0,47.8,1111122 
TCOON,ioos:station:TCOON:170:1,2014-05-07T01:00:00Z,27.2970,-97.4049,0.0,47.7,1111122 
TCOON,ioos:station:TCOON:170:1,2014-05-07T02:00:00Z,27.2970,-97.4049,0.0,47.9,1111122 
TCOON,ioos:station:TCOON:170:1,2014-05-07T03:00:00Z,27.2970,-97.4049,0.0,47.9,1111122 
TCOON,ioos:station:TCOON:170:1,2014-05-07T04:00:00Z,27.2970,-97.4049,0.0,47.9,1111122 
TCOON,ioos:station:TCOON:170:1,2014-05-07T05:00:00Z,27.2970,-97.4049,0.0,47.6,1111122 
TCOON,ioos:station:TCOON:170:1,2014-05-07T06:30:00Z,27.2970,-97.4049,0.0,46.8,1111122 
TCOON,ioos:station:TCOON:170:1,2014-05-07T07:00:00Z,27.2970,-97.4049,0.0,46.6,1111122 
TCOON,ioos:station:TCOON:170:1,2014-05-07T08:00:00Z,27.2970,-97.4049,0.0,46.2,1111122 
TCOON,ioos:station:TCOON:170:1,2014-05-07T09:00:00Z,27.2970,-97.4049,0.0,46.2,1111122 
TCOON,ioos:station:TCOON:170:1,2014-05-07T10:00:00Z,27.2970,-97.4049,0.0,46.0,1111122 
TCOON,ioos:station:TCOON:170:1,2014-05-07T11:00:00Z,27.2970,-97.4049,0.0,46.5,1111122 
TCOON,ioos:station:TCOON:170:1,2014-05-07T12:00:00Z,27.2970,-97.4049,0.0,46.7,1111122 
TCOON,ioos:station:TCOON:170:1,2014-05-07T13:00:00Z,27.2970,-97.4049,0.0,46.4,1111122 
TCOON,ioos:station:TCOON:170:1,2014-05-07T14:00:00Z,27.2970,-97.4049,0.0,46.4,1111122 
TCOON,ioos:station:TCOON:170:1,2014-05-07T15:00:00Z,27.2970,-97.4049,0.0,46.5,1111122 
TCOON,ioos:station:TCOON:170:1,2014-05-07T16:00:00Z,27.2970,-97.4049,0.0,47.0,1111122 
TCOON,ioos:station:TCOON:170:1,2014-05-07T17:00:00Z,27.2970,-97.4049,0.0,47.5,1111122 
TCOON,ioos:station:TCOON:170:1,2014-05-07T18:00:00Z,27.2970,-97.4049,0.0,47.8,1111122 
TCOON,ioos:station:TCOON:170:1,2014-05-07T19:00:00Z,27.2970,-97.4049,0.0,47.9,1111122 
TCOON,ioos:station:TCOON:170:1,2014-05-07T20:00:00Z,27.2970,-97.4049,0.0,47.9,1111122 
TCOON,ioos:station:TCOON:170:1,2014-05-07T21:00:00Z,27.2970,-97.4049,0.0,48.1,1111122 
TCOON,ioos:station:TCOON:170:1,2014-05-07T22:00:00Z,27.2970,-97.4049,0.0,48.4,1111122 
TCOON,ioos:station:TCOON:170:1,2014-05-07T23:00:00Z,27.2970,-97.4049,0.0,48.3,1111122 
TCOON,ioos:station:TCOON:170:1,2014-05-08T00:00:00Z,27.2970,-97.4049,0.0,48.3,1111122 
TCOON,ioos:station:TCOON:170:1,2014-05-08T01:00:00Z,27.2970,-97.4049,0.0,47.4,1111122 
TCOON,ioos:station:TCOON:170:1,2014-05-08T02:00:00Z,27.2970,-97.4049,0.0,48.0,1111122 
TCOON,ioos:station:TCOON:170:1,2014-05-08T03:00:00Z,27.2970,-97.4049,0.0,48.3,1111122 
TCOON,ioos:station:TCOON:170:1,2014-05-08T04:00:00Z,27.2970,-97.4049,0.0,48.4,1111122 
TCOON,ioos:station:TCOON:170:1,2014-05-08T05:00:00Z,27.2970,-97.4049,0.0,47.9,1111122 
TCOON,ioos:station:TCOON:170:1,2014-05-08T06:00:00Z,27.2970,-97.4049,0.0,48.2,1111122 
TCOON,ioos:station:TCOON:170:1,2014-05-08T07:00:00Z,27.2970,-97.4049,0.0,47.8,1111122 
TCOON,ioos:station:TCOON:170:1,2014-05-08T08:00:00Z,27.2970,-97.4049,0.0,47.8,1111122 
TCOON,ioos:station:TCOON:170:1,2014-05-08T09:00:00Z,27.2970,-97.4049,0.0,47.2,1111122 
TCOON,ioos:station:TCOON:170:1,2014-05-08T10:00:00Z,27.2970,-97.4049,0.0,47.3,1111122 
TCOON,ioos:station:TCOON:170:1,2014-05-08T11:00:00Z,27.2970,-97.4049,0.0,47.4,1111122 
TCOON,ioos:station:TCOON:170:1,2014-05-08T12:00:00Z,27.2970,-97.4049,0.0,47.3,1111122 
TCOON,ioos:station:TCOON:170:1,2014-05-08T13:00:00Z,27.2970,-97.4049,0.0,47.1,1111122 
TCOON,ioos:station:TCOON:170:1,2014-05-08T14:00:00Z,27.2970,-97.4049,0.0,47.0,1111122 
TCOON,ioos:station:TCOON:170:1,2014-05-08T15:00:00Z,27.2970,-97.4049,0.0,47.5,1111122 
TCOON,ioos:station:TCOON:170:1,2014-05-08T16:00:00Z,27.2970,-97.4049,0.0,47.8,1111122 
TCOON,ioos:station:TCOON:170:1,2014-05-08T17:00:00Z,27.2970,-97.4049,0.0,47.9,1111122 
TCOON,ioos:station:TCOON:170:1,2014-05-08T18:00:00Z,27.2970,-97.4049,0.0,47.9,1111122 
TCOON,ioos:station:TCOON:170:1,2014-05-08T19:00:00Z,27.2970,-97.4049,0.0,47.7,1111122 
TCOON,ioos:station:TCOON:170:1,2014-05-08T20:00:00Z,27.2970,-97.4049,0.0,47.8,1111122 
TCOON,ioos:station:TCOON:170:1,2014-05-08T21:00:00Z,27.2970,-97.4049,0.0,47.8,1111122 
TCOON,ioos:station:TCOON:170:1,2014-05-08T22:00:00Z,27.2970,-97.4049,0.0,47.6,1111122 
TCOON,ioos:station:TCOON:170:1,2014-05-08T23:00:00Z,27.2970,-97.4049,0.0,47.6,1111122 
TCOON,ioos:station:TCOON:170:1,2014-05-09T00:00:00Z,27.2970,-97.4049,0.0,47.6,1111122 
TCOON,ioos:station:TCOON:170:1,2014-05-09T01:00:00Z,27.2970,-97.4049,0.0,48.0,1111122 
TCOON,ioos:station:TCOON:170:1,2014-05-09T02:00:00Z,27.2970,-97.4049,0.0,47.6,1111122 
TCOON,ioos:station:TCOON:170:1,2014-05-09T03:00:00Z,27.2970,-97.4049,0.0,47.6,1111122 
TCOON,ioos:station:TCOON:170:1,2014-05-09T04:00:00Z,27.2970,-97.4049,0.0,47.8,1111122 
TCOON,ioos:station:TCOON:170:1,2014-05-09T05:00:00Z,27.2970,-97.4049,0.0,47.4,1111122 
TCOON,ioos:station:TCOON:170:1,2014-05-09T06:30:00Z,27.2970,-97.4049,0.0,46.9,1111122 
TCOON,ioos:station:TCOON:170:1,2014-05-09T07:00:00Z,27.2970,-97.4049,0.0,47.0,1111122 
TCOON,ioos:station:TCOON:170:1,2014-05-09T08:00:00Z,27.2970,-97.4049,0.0,46.8,1111122 
TCOON,ioos:station:TCOON:170:1,2014-05-09T09:00:00Z,27.2970,-97.4049,0.0,46.6,1111122 
TCOON,ioos:station:TCOON:170:1,2014-05-09T10:00:00Z,27.2970,-97.4049,0.0,46.7,1111122 
TCOON,ioos:station:TCOON:170:1,2014-05-09T11:00:00Z,27.2970,-97.4049,0.0,46.6,1111122 
TCOON,ioos:station:TCOON:170:1,2014-05-09T12:00:00Z,27.2970,-97.4049,0.0,46.6,1111122 
TCOON,ioos:station:TCOON:170:1,2014-05-09T13:00:00Z,27.2970,-97.4049,0.0,46.6,1111122 
TCOON,ioos:station:TCOON:170:1,2014-05-09T14:00:00Z,27.2970,-97.4049,0.0,46.4,1111122 
TCOON,ioos:station:TCOON:170:1,2014-05-09T15:00:00Z,27.2970,-97.4049,0.0,46.1,1111122 
TCOON,ioos:station:TCOON:170:1,2014-05-09T16:00:00Z,27.2970,-97.4049,0.0,46.0,1111122 
TCOON,ioos:station:TCOON:170:1,2014-05-09T17:00:00Z,27.2970,-97.4049,0.0,46.1,1111122 
TCOON,ioos:station:TCOON:170:1,2014-05-09T18:00:00Z,27.2970,-97.4049,0.0,46.1,1111122 
TCOON,ioos:station:TCOON:170:1,2014-05-09T19:00:00Z,27.2970,-97.4049,0.0,46.0,1111122 
TCOON,ioos:station:TCOON:170:1,2014-05-09T20:00:00Z,27.2970,-97.4049,0.0,46.1,1111122 
TCOON,ioos:station:TCOON:170:1,2014-05-09T21:00:00Z,27.2970,-97.4049,0.0,46.2,1111122 
TCOON,ioos:station:TCOON:170:1,2014-05-09T22:00:00Z,27.2970,-97.4049,0.0,46.6,1111122 
TCOON,ioos:station:TCOON:170:1,2014-05-09T23:00:00Z,27.2970,-97.4049,0.0,46.7,1111122 
TCOON,ioos:station:TCOON:170:1,2014-05-10T00:00:00Z,27.2970,-97.4049,0.0,46.0,1111122 
TCOON,ioos:station:TCOON:170:1,2014-05-10T01:00:00Z,27.2970,-97.4049,0.0,46.2,1111122 
TCOON,ioos:station:TCOON:170:1,2014-05-10T02:00:00Z,27.2970,-97.4049,0.0,46.5,1111122 
TCOON,ioos:station:TCOON:170:1,2014-05-10T03:00:00Z,27.2970,-97.4049,0.0,46.2,1111122 
TCOON,ioos:station:TCOON:170:1,2014-05-10T04:00:00Z,27.2970,-97.4049,0.0,45.4,1111122 
TCOON,ioos:station:TCOON:170:1,2014-05-10T05:00:00Z,27.2970,-97.4049,0.0,45.3,1111122 
TCOON,ioos:station:TCOON:170:1,2014-05-10T06:00:00Z,27.2970,-97.4049,0.0,45.7,1111122 
TCOON,ioos:station:TCOON:170:1,2014-05-10T07:00:00Z,27.2970,-97.4049,0.0,45.7,1111122 
TCOON,ioos:station:TCOON:170:1,2014-05-10T08:00:00Z,27.2970,-97.4049,0.0,45.6,1111122 
TCOON,ioos:station:TCOON:170:1,2014-05-10T09:00:00Z,27.2970,-97.4049,0.0,45.6,1111122 
TCOON,ioos:station:TCOON:170:1,2014-05-10T10:00:00Z,27.2970,-97.4049,0.0,45.8,1111122 
TCOON,ioos:station:TCOON:170:1,2014-05-10T11:00:00Z,27.2970,-97.4049,0.0,46.0,1111122 
TCOON,ioos:station:TCOON:170:1,2014-05-10T12:00:00Z,27.2970,-97.4049,0.0,46.1,1111122 
TCOON,ioos:station:TCOON:170:1,2014-05-10T13:00:00Z,27.2970,-97.4049,0.0,46.1,1111122 
TCOON,ioos:station:TCOON:170:1,2014-05-10T14:00:00Z,27.2970,-97.4049,0.0,46.0,1111122 
TCOON,ioos:station:TCOON:170:1,2014-05-10T15:00:00Z,27.2970,-97.4049,0.0,46.0,1111122 
TCOON,ioos:station:TCOON:170:1,2014-05-10T16:00:00Z,27.2970,-97.4049,0.0,46.1,1111122 
TCOON,ioos:station:TCOON:170:1,2014-05-10T17:00:00Z,27.2970,-97.4049,0.0,46.3,1111122 
TCOON,ioos:station:TCOON:170:1,2014-05-10T18:00:00Z,27.2970,-97.4049,0.0,46.5,1111122 
TCOON,ioos:station:TCOON:170:1,2014-05-10T19:00:00Z,27.2970,-97.4049,0.0,46.6,1111122 
TCOON,ioos:station:TCOON:170:1,2014-05-10T20:00:00Z,27.2970,-97.4049,0.0,46.5,1111122 
TCOON,ioos:station:TCOON:170:1,2014-05-10T21:00:00Z,27.2970,-97.4049,0.0,46.4,1111122 
TCOON,ioos:station:TCOON:170:1,2014-05-10T22:00:00Z,27.2970,-97.4049,0.0,46.4,1111122 
TCOON,ioos:station:TCOON:170:1,2014-05-10T23:00:00Z,27.2970,-97.4049,0.0,46.3,1111122 
TCOON,ioos:station:TCOON:170:1,2014-05-11T00:00:00Z,27.2970,-97.4049,0.0,46.4,1111122 
TCOON,ioos:station:TCOON:170:1,2014-05-11T01:00:00Z,27.2970,-97.4049,0.0,46.4,1111122 
TCOON,ioos:station:TCOON:170:1,2014-05-11T02:00:00Z,27.2970,-97.4049,0.0,46.4,1111122 
TCOON,ioos:station:TCOON:170:1,2014-05-11T03:00:00Z,27.2970,-97.4049,0.0,46.3,1111122 
TCOON,ioos:station:TCOON:170:1,2014-05-11T04:00:00Z,27.2970,-97.4049,0.0,46.1,1111122 
TCOON,ioos:station:TCOON:170:1,2014-05-11T05:00:00Z,27.2970,-97.4049,0.0,46.1,1111122 
TCOON,ioos:station:TCOON:170:1,2014-05-11T06:30:00Z,27.2970,-97.4049,0.0,46.2,1111122 
TCOON,ioos:station:TCOON:170:1,2014-05-11T07:00:00Z,27.2970,-97.4049,0.0,46.4,1111122 
TCOON,ioos:station:TCOON:170:1,2014-05-11T08:00:00Z,27.2970,-97.4049,0.0,46.4,1111122 
TCOON,ioos:station:TCOON:170:1,2014-05-11T09:00:00Z,27.2970,-97.4049,0.0,46.4,1111122 
TCOON,ioos:station:TCOON:170:1,2014-05-11T10:00:00Z,27.2970,-97.4049,0.0,46.3,1111122 
TCOON,ioos:station:TCOON:170:1,2014-05-11T11:00:00Z,27.2970,-97.4049,0.0,46.2,1111122 
TCOON,ioos:station:TCOON:170:1,2014-05-11T12:00:00Z,27.2970,-97.4049,0.0,46.1,1111122 
TCOON,ioos:station:TCOON:170:1,2014-05-11T13:00:00Z,27.2970,-97.4049,0.0,46.1,1111122 
TCOON,ioos:station:TCOON:170:1,2014-05-11T14:00:00Z,27.2970,-97.4049,0.0,46.1,1111122 
TCOON,ioos:station:TCOON:170:1,2014-05-11T15:00:00Z,27.2970,-97.4049,0.0,45.8,1111122 
TCOON,ioos:station:TCOON:170:1,2014-05-11T16:00:00Z,27.2970,-97.4049,0.0,45.4,1111122 
TCOON,ioos:station:TCOON:170:1,2014-05-11T17:00:00Z,27.2970,-97.4049,0.0,45.4,1111122 
TCOON,ioos:station:TCOON:170:1,2014-05-11T18:00:00Z,27.2970,-97.4049,0.0,45.5,1111122 
TCOON,ioos:station:TCOON:170:1,2014-05-11T19:00:00Z,27.2970,-97.4049,0.0,45.6,1111122 
TCOON,ioos:station:TCOON:170:1,2014-05-11T20:00:00Z,27.2970,-97.4049,0.0,45.6,1111122 
TCOON,ioos:station:TCOON:170:1,2014-05-11T21:00:00Z,27.2970,-97.4049,0.0,45.6,1111122 
TCOON,ioos:station:TCOON:170:1,2014-05-11T22:00:00Z,27.2970,-97.4049,0.0,45.7,1111122 
TCOON,ioos:station:TCOON:170:1,2014-05-11T23:00:00Z,27.2970,-97.4049,0.0,45.6,1111122 
TCOON,ioos:station:TCOON:170:1,2014-05-12T00:00:00Z,27.2970,-97.4049,0.0,45.7,1111122 
TCOON,ioos:station:TCOON:170:1,2014-05-12T01:00:00Z,27.2970,-97.4049,0.0,45.3,1111122 
TCOON,ioos:station:TCOON:170:1,2014-05-12T02:00:00Z,27.2970,-97.4049,0.0,45.3,1111122 
TCOON,ioos:station:TCOON:170:1,2014-05-12T03:00:00Z,27.2970,-97.4049,0.0,45.1,1111122 
TCOON,ioos:station:TCOON:170:1,2014-05-12T04:00:00Z,27.2970,-97.4049,0.0,45.1,1111122 
TCOON,ioos:station:TCOON:170:1,2014-05-12T05:00:00Z,27.2970,-97.4049,0.0,45.0,1111122 
TCOON,ioos:station:TCOON:170:1,2014-05-12T06:30:00Z,27.2970,-97.4049,0.0,44.6,1111122 
TCOON,ioos:station:TCOON:170:1,2014-05-12T07:00:00Z,27.2970,-97.4049,0.0,44.6,1111122 
TCOON,ioos:station:TCOON:170:1,2014-05-12T08:00:00Z,27.2970,-97.4049,0.0,44.4,1111122 
TCOON,ioos:station:TCOON:170:1,2014-05-12T09:00:00Z,27.2970,-97.4049,0.0,44.4,1111122 
TCOON,ioos:station:TCOON:170:1,2014-05-12T10:00:00Z,27.2970,-97.4049,0.0,44.1,1111122 
TCOON,ioos:station:TCOON:170:1,2014-05-12T11:00:00Z,27.2970,-97.4049,0.0,44.3,1111122 
TCOON,ioos:station:TCOON:170:1,2014-05-12T12:00:00Z,27.2970,-97.4049,0.0,44.4,1111122 
TCOON,ioos:station:TCOON:170:1,2014-05-12T13:00:00Z,27.2970,-97.4049,0.0,44.5,1111122 
TCOON,ioos:station:TCOON:170:1,2014-05-12T14:00:00Z,27.2970,-97.4049,0.0,44.4,1111122 
TCOON,ioos:station:TCOON:170:1,2014-05-12T15:00:00Z,27.2970,-97.4049,0.0,44.2,1111122 
TCOON,ioos:station:TCOON:170:1,2014-05-12T16:00:00Z,27.2970,-97.4049,0.0,43.5,1111122 
TCOON,ioos:station:TCOON:170:1,2014-05-12T17:00:00Z,27.2970,-97.4049,0.0,43.2,1111122 
TCOON,ioos:station:TCOON:170:1,2014-05-12T18:00:00Z,27.2970,-97.4049,0.0,43.2,1111122 
TCOON,ioos:station:TCOON:170:1,2014-05-12T19:00:00Z,27.2970,-97.4049,0.0,43.7,1111122 
TCOON,ioos:station:TCOON:170:1,2014-05-12T20:00:00Z,27.2970,-97.4049,0.0,44.0,1111122 
TCOON,ioos:station:TCOON:170:1,2014-05-12T21:00:00Z,27.2970,-97.4049,0.0,43.8,1111122 
TCOON,ioos:station:TCOON:170:1,2014-05-12T22:00:00Z,27.2970,-97.4049,0.0,43.7,1111122 
TCOON,ioos:station:TCOON:170:1,2014-05-12T23:00:00Z,27.2970,-97.4049,0.0,43.2,1111122 
TCOON,ioos:station:TCOON:170:1,2014-05-13T00:00:00Z,27.2970,-97.4049,0.0,43.1,1111122 
TCOON,ioos:station:TCOON:170:1,2014-05-13T01:00:00Z,27.2970,-97.4049,0.0,43.1,1111122 
TCOON,ioos:station:TCOON:170:1,2014-05-13T02:00:00Z,27.2970,-97.4049,0.0,43.2,1111122 
TCOON,ioos:station:TCOON:170:1,2014-05-13T03:00:00Z,27.2970,-97.4049,0.0,43.2,1111122 
TCOON,ioos:station:TCOON:170:1,2014-05-13T04:00:00Z,27.2970,-97.4049,0.0,42.9,1111122 
TCOON,ioos:station:TCOON:170:1,2014-05-13T05:00:00Z,27.2970,-97.4049,0.0,42.7,1111122 
TCOON,ioos:station:TCOON:170:1,2014-05-13T06:30:00Z,27.2970,-97.4049,0.0,41.8,1111122 
TCOON,ioos:station:TCOON:170:1,2014-05-13T07:00:00Z,27.2970,-97.4049,0.0,42.0,1111122 
TCOON,ioos:station:TCOON:170:1,2014-05-13T08:00:00Z,27.2970,-97.4049,0.0,42.4,1111122 
TCOON,ioos:station:TCOON:170:1,2014-05-13T09:00:00Z,27.2970,-97.4049,0.0,42.7,1111122 
TCOON,ioos:station:TCOON:170:1,2014-05-13T10:00:00Z,27.2970,-97.4049,0.0,42.2,1111122 
TCOON,ioos:station:TCOON:170:1,2014-05-13T11:00:00Z,27.2970,-97.4049,0.0,42.1,1111122 
TCOON,ioos:station:TCOON:170:1,2014-05-13T12:00:00Z,27.2970,-97.4049,0.0,40.3,1111122 
TCOON,ioos:station:TCOON:170:1,2014-05-13T13:00:00Z,27.2970,-97.4049,0.0,39.9,1111122 
TCOON,ioos:station:TCOON:170:1,2014-05-13T15:00:00Z,27.2970,-97.4049,0.0,38.6,1111122 